Location: Ellerstadt
(49.4644°N, 8.2615°E)
Time: 03:32:03
(UTC+00:00)

USA 305 - Pass Details

Date: 03 March 2021
Orbit: 564 x 577 km, 54.0° (Epoch: 10 April)

Event Time Altitude Azimuth Distance (km) Brightness Sun altitude
Rises 19:45:04 0° 290° (WNW) 2,783 7.8 -25.1°
Reaches altitude 10° 19:47:22 10° 295° (WNW) 1,881 6.6 -25.4°
Enters shadow 19:50:57 47° 341° (NNW) 758 3.7 -26.0°
